GW5931 Weather Reports


time (UTC)temp
C
wind
direction
speed
KPH
gust
KPH
rain 1hr
cm
rain 24hr
cm
rain mn
cm
humidity
%
barometer
mb
20260906210016 21 323 4.8 12.9 0.00 0.00 0.00 62 1017.0
20260906204509 20 332 4.8 12.9 0.00 0.00 0.00 68 1016.8
20260906203008 20 80 4.8 16.1 0.00 0.00 0.00 69 1016.8
20260906201506 20 74 3.2 8.0 0.00 0.00 0.00 69 1016.8
20260906200018 20 98 4.8 19.3 0.00 0.00 0.00 72 1016.9
20260906194503 20 74 11.3 17.7 0.00 0.00 0.00 69 1016.9
20260906193002 20 99 9.7 19.3 0.00 0.00 0.00 66 1017.1
20260906191501 20 350 6.4 17.7 0.00 0.00 0.00 70 1017.1
20260906190101 20 109 4.8 17.7 0.00 0.00 0.00 69 1017.0
20260906184609 20 44 9.7 20.9 0.00 0.00 0.00 71 1016.9
20260906183103 20 50 11.3 20.9 0.00 0.00 0.00 71 1017.0
20260906181558 20 86 6.4 14.5 0.00 0.00 0.00 71 1016.9
20260906181555 20 61 6.4 14.5 0.00 0.00 0.00 71 1016.9
20260906180056 20 109 11.3 20.9 0.00 0.00 0.00 72 1016.9
20260906174554 20 37 9.7 20.9 0.00 0.00 0.00 70 1016.8
20260906173052 20 62 8.0 17.7 0.00 0.00 0.00 73 1016.9
20260906171600 20 22 9.7 19.3 0.00 0.00 0.00 74 1016.9
20260906170053 20 117 11.3 24.1 0.00 0.00 0.00 77 1017.0
20260906164554 19 104 9.7 20.9 0.00 0.00 0.00 78 1016.9
20260906163050 18 115 9.7 19.3 0.00 0.00 0.00 82 1016.9
20260906161541 18 68 9.7 16.1 0.00 0.00 0.00 79 1016.9
20260906160048 19 95 6.4 17.7 0.00 0.00 0.00 78 1016.9
20260906154537 19 105 8.0 17.7 0.00 0.00 0.00 77 1016.9
20260906153042 19 95 3.2 16.1 0.00 0.00 0.00 78 1016.7
20260906151532 19 103 6.4 17.7 0.00 0.00 0.00 79 1016.6
20260906150045 19 98 11.3 19.3 0.00 0.00 0.00 79 1016.6
20260906144535 19 87 8.0 19.3 0.00 0.00 0.00 81 1016.6
20260906143034 19 350 1.6 14.5 0.00 0.00 0.00 82 1016.5
20260906141534 18 82 1.6 16.1 0.00 0.00 0.00 86 1016.5
20260906140021 18 81 4.8 17.7 0.00 0.00 0.00 88 1016.4
20260906134512 18 165 4.8 12.9 0.00 0.00 0.00 90 1016.2
20260906133008 18 92 8.0 16.1 0.00 0.00 0.00 93 1016.1
20260906131519 18 355 1.6 16.1 0.00 0.00 0.00 94 1016.0
20260906130000 17 341 1.6 12.9 0.00 0.00 0.00 95 1016.0
20260906124559 17 35 1.6 6.4 0.00 0.00 0.00 95 1016.0
20260906123056 17 355 4.8 12.9 0.00 0.00 0.00 95 1015.7
20260906121555 17 341 1.6 6.4 0.00 0.00 0.00 96 1015.9
20260906120050 16 339 1.6 4.8 0.00 0.00 0.00 96 1015.7
20260906114549 16 339 0.0 3.2 0.00 0.00 0.00 96 1015.4
20260906113042 15 339 0.0 0.0 0.00 0.00 0.00 96 1015.3
20260906111546 15 339 0.0 0.0 0.00 0.00 0.00 96 1015.1
20260906110042 14 339 0.0 0.0 0.00 0.00 0.00 96 1014.9
20260906104532 14 339 0.0 0.0 0.00 0.00 0.00 95 1014.8
20260906103029 14 339 0.0 0.0 0.00 0.00 0.00 95 1014.6
20260906101529 14 339 0.0 0.0 0.00 0.00 0.00 95 1014.5
20260906100026 14 339 0.0 0.0 0.00 0.00 0.00 95 1014.4
20260906094531 14 339 0.0 0.0 0.00 0.00 0.00 95 1014.2
20260906093022 14 339 0.0 0.0 0.00 0.00 0.00 95 1014.1
20260906091520 15 339 0.0 1.6 0.00 0.00 0.00 95 1014.0
20260906090016 15 339 0.0 0.0 0.00 0.00 0.00 95 1013.8
20260906084515 15 339 0.0 1.6 0.00 0.00 0.00 95 1013.6
20260906083012 15 339 0.0 3.2 0.00 0.00 0.00 94 1013.3
20260906081533 15 339 0.0 0.0 0.00 0.00 0.00 94 1013.2
20260906080046 15 339 0.0 0.0 0.00 0.00 0.00 94 1013.3
20260906074537 15 339 0.0 0.0 0.00 0.00 0.00 94 1013.4
20260906073005 15 339 0.0 0.0 0.00 0.00 0.00 94 1013.2
20260906071503 16 339 0.0 0.0 0.00 0.00 0.00 94 1013.1
20260906070101 16 339 0.0 1.6 0.00 0.00 0.00 93 1013.2
20260906064558 16 339 0.0 0.0 0.00 0.00 0.00 93 1013.2
20260906063057 16 339 0.0 1.6 0.00 0.00 0.00 93 1013.3
20260906061557 16 339 0.0 0.0 0.00 0.00 0.00 93 1013.1
20260906060054 17 339 0.0 1.6 0.00 0.00 0.00 93 1013.1
20260906054554 17 339 0.0 0.0 0.00 0.00 0.00 93 1013.2
20260906053053 17 339 0.0 1.6 0.00 0.00 0.00 93 1013.2
20260906051553 17 339 0.0 1.6 0.00 0.00 0.00 93 1013.1
20260906050112 17 339 0.0 0.0 0.00 0.00 0.00 93 1013.2
20260906044548 16 339 0.0 0.0 0.00 0.00 0.00 93 1013.2
20260906043048 16 339 0.0 0.0 0.00 0.00 0.00 92 1013.1
20260906041549 16 339 0.0 1.6 0.00 0.00 0.00 92 1013.0
20260906040048 16 339 0.0 1.6 0.00 0.00 0.00 92 1012.8
20260906034515 16 339 0.0 0.0 0.00 0.00 0.00 92 1012.9
20260906033012 16 339 0.0 0.0 0.00 0.00 0.00 92 1012.8
20260906031509 16 339 0.0 0.0 0.00 0.00 0.00 91 1012.8
20260906030009 16 339 0.0 1.6 0.00 0.00 0.00 91 1012.7
20260906024508 17 339 0.0 0.0 0.00 0.00 0.00 90 1012.6
20260906023008 17 339 0.0 1.6 0.00 0.00 0.00 90 1012.6
20260906021536 17 339 0.0 1.6 0.00 0.00 0.00 89 1012.5
20260906020049 17 339 0.0 0.0 0.00 0.00 0.00 88 1012.5
20260906014535 18 339 0.0 1.6 0.00 0.00 0.00 87 1012.4
20260906013031 18 339 0.0 0.0 0.00 0.00 0.00 86 1012.4
20260906011529 18 339 0.0 0.0 0.00 0.00 0.00 84 1012.3
20260906010029 19 339 0.0 1.6 0.00 0.00 0.00 82 1012.3
20260906004603 20 339 0.0 1.6 0.00 0.00 0.00 79 1012.3
20260906003100 20 339 0.0 4.8 0.00 0.00 0.00 78 1012.1
20260906001606 20 11 0.0 4.8 0.00 0.00 0.00 77 1012.0
20260906000056 21 5 1.6 6.4 0.00 0.00 0.00 76 1012.2
20260905234555 21 9 1.6 4.8 0.00 0.00 0.00 74 1012.2
20260905233108 21 360 1.6 6.4 0.00 0.00 0.00 71 1012.2
20260905231523 22 57 1.6 6.4 0.00 0.00 0.00 69 1012.2
20260905230023 22 59 1.6 6.4 0.00 0.00 0.00 66 1012.2
20260905224520 23 355 1.6 8.0 0.00 0.00 0.00 65 1012.1
20260905223032 22 70 1.6 6.4 0.00 0.00 0.00 65 1012.0
20260905221535 23 123 0.0 9.7 0.00 0.00 0.00 64 1012.0
20260905220019 23 17 3.2 8.0 0.00 0.00 0.00 63 1011.9
20260905214514 23 360 1.6 12.9 0.00 0.00 0.00 61 1011.9
20260905213013 23 324 3.2 12.9 0.00 0.00 0.00 60 1011.8
20260905211533 23 329 4.8 12.9 0.00 0.00 0.00 58 1011.7